This is the latest recevied weather packets stored in our database for station/object KG0HG. If no packets are shown the sender has not sent any weather packets the latest 10 day(s).
| Time | Temp. | Humidity | Pressure | Rain* | Wind** | Luminosity | Snow |
|---|---|---|---|---|---|---|---|
| 1778002228 | 8.33° C | 96% | 1013.2 hPa | 0 mm | - | 55 W/m² | - |
| 1778001926 | 8.33° C | 96% | 1013.1 hPa | 0 mm | - | 52 W/m² | - |
| 1778001622 | 8.33° C | 96% | 1013.3 hPa | 0 mm | - | 44 W/m² | - |
| 1778001317 | 7.78° C | 96% | 1013.1 hPa | 0 mm | - | 62 W/m² | - |
| 1778001014 | 8.33° C | 96% | 1013 hPa | 1.27 mm | - | 79 W/m² | - |
| 1778000711 | 8.33° C | 96% | 1012.8 hPa | 1.27 mm | - | 64 W/m² | - |
| 1778000407 | 8.33° C | 96% | 1012.6 hPa | 0 mm | - | 80 W/m² | - |
| 1778000102 | 8.33° C | 97% | 1012.9 hPa | 1.78 mm | - | 73 W/m² | - |
| 1777999798 | 8.33° C | 96% | 1012.9 hPa | 1.78 mm | - | 60 W/m² | - |
| 1777999494 | 8.33° C | 97% | 1012.9 hPa | 0 mm | - | 30 W/m² | - |
| 1777999193 | 8.89° C | 97% | 1013 hPa | 1.27 mm | - | 27 W/m² | - |
| 1777998890 | 8.89° C | 97% | 1013.2 hPa | 1.27 mm | - | 25 W/m² | - |
| 1777998590 | 8.33° C | 97% | 1013.5 hPa | 1.78 mm | - | 22 W/m² | - |
| 1777998280 | 8.89° C | 97% | 1013.6 hPa | 3.05 mm | - | 29 W/m² | - |
| 1777997977 | 8.33° C | 97% | 1013.1 hPa | 1.27 mm | - | 54 W/m² | - |
| 1777997673 | 8.89° C | 97% | 1013 hPa | 1.78 mm | - | 63 W/m² | - |
| 1777997371 | 8.33° C | 97% | 1013.1 hPa | 1.78 mm | - | 44 W/m² | - |
| 1777997068 | 8.33° C | 97% | 1013.4 hPa | 0 mm | - | 31 W/m² | - |
| 1777996759 | 8.33° C | 96% | 1013.1 hPa | 1.78 mm | - | 20 W/m² | - |
| 1777996456 | 8.33° C | 96% | 1013.3 hPa | 1.78 mm | - | 28 W/m² | - |
| 1777996152 | 8.33° C | 96% | 1013.2 hPa | 0 mm | - | 26 W/m² | - |
| 1777995848 | 8.33° C | 96% | 1012.8 hPa | 0 mm | - | 41 W/m² | - |
| 1777995545 | 8.33° C | 96% | 1013 hPa | 0 mm | - | 37 W/m² | - |
| 1777995242 | 8.33° C | 96% | 1012.7 hPa | 0 mm | - | 40 W/m² | - |
| 1777994939 | 8.33° C | 96% | 1012.9 hPa | 0 mm | - | 35 W/m² | - |
* Rain latest hour (hover to see other rain measurements)
** Current wind speed in m/s (hover to see current wind gust speed)